AKU463 NZWN-NZAA

Flight info

Callsign AKU463
Flight time 0h 47m
Altitude 33000
Route RUSIL Y127 OPABI Q277 DAVEE
Aircraft A20N/M-SDE2E3FGHIRWXY/LB1

Departure

Time 2026-05-05 07:37
Airport Wellington International Airport (NZWN)

Arrival

Time 2026-05-05 08:25
Airport Auckland International Airport (NZAA)
Time Latitude Longitude Altitude Speed Heading
2026-05-05 07:29 -41.32859 174.81010 30 ft 0 kts 53°
2026-05-05 07:33 -41.32860 174.81008 30 ft 2 kts 53°
2026-05-05 07:33 -41.32870 174.80990 27 ft 2 kts 51°
2026-05-05 07:33 -41.32881 174.80973 30 ft 2 kts 45°
2026-05-05 07:34 -41.32894 174.80960 28 ft 2 kts 15°
2026-05-05 07:34 -41.32910 174.80962 29 ft 2 kts 300°
2026-05-05 07:34 -41.32914 174.80973 29 ft 0 kts 277°
2026-05-05 07:35 -41.32913 174.80950 27 ft 6 kts 271°
2026-05-05 07:35 -41.32930 174.80888 27 ft 8 kts 206°
2026-05-05 07:35 -41.32990 174.80803 26 ft 13 kts 202°
2026-05-05 07:35 -41.33093 174.80788 26 ft 18 kts 185°
2026-05-05 07:36 -41.33233 174.80778 28 ft 22 kts 181°
2026-05-05 07:36 -41.33389 174.80776 28 ft 22 kts 181°
2026-05-05 07:36 -41.33540 174.80751 30 ft 20 kts 216°
2026-05-05 07:36 -41.33542 174.80636 29 ft 12 kts 352°
2026-05-05 07:37 -41.33438 174.80640 26 ft 33 kts
2026-05-05 07:37 -41.32943 174.80673 27 ft 105 kts
2026-05-05 07:37 -41.32040 174.80727 176 ft 145 kts
2026-05-05 07:37 -41.31038 174.80798 976 ft 140 kts
2026-05-05 07:38 -41.30083 174.80883 1878 ft 135 kts 359°
2026-05-05 07:38 -41.29097 174.80964 2453 ft 151 kts 358°
2026-05-05 07:38 -41.27983 174.81038 2923 ft 171 kts 357°
2026-05-05 07:38 -41.26717 174.81097 3390 ft 192 kts 354°
2026-05-05 07:39 -41.25388 174.80806 4162 ft 196 kts 340°
2026-05-05 07:39 -41.24119 174.80095 4957 ft 205 kts 335°
2026-05-05 07:39 -41.22718 174.79366 5472 ft 228 kts 341°
2026-05-05 07:39 -41.22221 174.79153 5630 ft 235 kts 343°
2026-05-05 07:40 -41.21553 174.78903 5828 ft 245 kts 345°
2026-05-05 07:40 -41.19849 174.78327 6518 ft 257 kts 345°
2026-05-05 07:40 -41.18103 174.77735 7425 ft 261 kts 345°
2026-05-05 07:40 -41.16300 174.77314 8291 ft 266 kts 354°
2026-05-05 07:41 -41.14434 174.77302 9202 ft 271 kts
2026-05-05 07:41 -41.12567 174.77483 10114 ft 275 kts
2026-05-05 07:41 -41.10597 174.77660 10591 ft 295 kts
2026-05-05 07:41 -41.08448 174.77846 10925 ft 317 kts
2026-05-05 07:42 -41.06218 174.78037 11376 ft 332 kts
2026-05-05 07:42 -41.03902 174.78233 12219 ft 333 kts
2026-05-05 07:42 -41.01582 174.78430 13091 ft 336 kts
2026-05-05 07:42 -40.99239 174.78628 13930 ft 339 kts
2026-05-05 07:43 -40.96866 174.78829 14659 ft 344 kts
2026-05-05 07:43 -40.94472 174.79032 15367 ft 347 kts
2026-05-05 07:43 -40.92044 174.79238 16066 ft 351 kts
2026-05-05 07:43 -40.89590 174.79446 16759 ft 355 kts
2026-05-05 07:44 -40.87109 174.79656 17443 ft 359 kts
2026-05-05 07:44 -40.84608 174.79868 18123 ft 363 kts
2026-05-05 07:44 -40.82073 174.80083 18792 ft 367 kts
2026-05-05 07:44 -40.79514 174.80299 19393 ft 370 kts
2026-05-05 07:45 -40.76935 174.80517 19982 ft 373 kts
2026-05-05 07:45 -40.74336 174.80737 20566 ft 376 kts
2026-05-05 07:45 -40.71710 174.80958 21133 ft 380 kts
2026-05-05 07:45 -40.69057 174.81181 21722 ft 383 kts
2026-05-05 07:46 -40.66380 174.81398 22282 ft 387 kts
2026-05-05 07:46 -40.63674 174.81410 22838 ft 390 kts 359°
2026-05-05 07:46 -40.60942 174.81393 23393 ft 394 kts 360°
2026-05-05 07:46 -40.58186 174.81378 23932 ft 398 kts 360°
2026-05-05 07:47 -40.55412 174.81365 24400 ft 401 kts 360°
2026-05-05 07:47 -40.52606 174.81353 24839 ft 405 kts 360°
2026-05-05 07:47 -40.49781 174.81340 25261 ft 408 kts 360°
2026-05-05 07:47 -40.46923 174.81328 25692 ft 412 kts 360°
2026-05-05 07:48 -40.44046 174.81315 26109 ft 415 kts 360°
2026-05-05 07:48 -40.41144 174.81303 26521 ft 418 kts 360°
2026-05-05 07:48 -40.38226 174.81290 26916 ft 422 kts 360°
2026-05-05 07:48 -40.35277 174.81278 27310 ft 425 kts 360°
2026-05-05 07:49 -40.32302 174.81265 27693 ft 428 kts 360°
2026-05-05 07:49 -40.29317 174.81252 28083 ft 431 kts 360°
2026-05-05 07:49 -40.26304 174.81239 28443 ft 434 kts 360°
2026-05-05 07:49 -40.23270 174.81226 28817 ft 437 kts 360°
2026-05-05 07:50 -40.20225 174.81213 29161 ft 440 kts 360°
2026-05-05 07:50 -40.17192 174.81200 29501 ft 442 kts 360°
2026-05-05 07:50 -40.14102 174.81187 29824 ft 445 kts 360°
2026-05-05 07:50 -40.11001 174.81173 30144 ft 448 kts 360°
2026-05-05 07:51 -40.07871 174.81160 30461 ft 451 kts 360°
2026-05-05 07:51 -40.04724 174.81147 30754 ft 453 kts 360°
2026-05-05 07:51 -40.01561 174.81133 31051 ft 455 kts 360°
2026-05-05 07:51 -39.98391 174.81119 31338 ft 457 kts 359°
2026-05-05 07:52 -39.95201 174.81106 31644 ft 459 kts 359°
2026-05-05 07:52 -39.92005 174.81092 32005 ft 459 kts 359°
2026-05-05 07:52 -39.88816 174.81079 32367 ft 459 kts 359°
2026-05-05 07:52 -39.85620 174.81065 32735 ft 458 kts 359°
2026-05-05 07:53 -39.82435 174.81052 33091 ft 458 kts 359°
2026-05-05 07:53 -39.79245 174.81038 33342 ft 458 kts 359°
2026-05-05 07:53 -39.76064 174.81025 33443 ft 456 kts 359°
2026-05-05 07:53 -39.72893 174.81011 33480 ft 456 kts 359°
2026-05-05 07:54 -39.66543 174.80985 33483 ft 456 kts 359°
2026-05-05 07:54 -39.60201 174.80958 33480 ft 456 kts 359°
2026-05-05 07:55 -39.53854 174.80932 33479 ft 456 kts 359°
2026-05-05 07:55 -39.47502 174.80905 33481 ft 456 kts 359°
2026-05-05 07:56 -39.41154 174.80878 33485 ft 457 kts 359°
2026-05-05 07:56 -39.34793 174.80852 33487 ft 457 kts 359°
2026-05-05 07:57 -39.28436 174.80825 33490 ft 457 kts 359°
2026-05-05 07:57 -39.22072 174.80799 33490 ft 457 kts 359°
2026-05-05 07:58 -39.16787 174.80778 33491 ft 457 kts 359°
2026-05-05 07:58 -39.10423 174.80757 33489 ft 457 kts 359°
2026-05-05 07:59 -39.04071 174.80735 33485 ft 457 kts 359°
2026-05-05 07:59 -38.97709 174.80714 33485 ft 457 kts 359°
2026-05-05 08:00 -38.91358 174.80692 33485 ft 457 kts 359°
2026-05-05 08:00 -38.85001 174.80671 33479 ft 456 kts 359°
2026-05-05 08:01 -38.78654 174.80656 33483 ft 456 kts 359°
2026-05-05 08:01 -38.72300 174.80658 33482 ft 456 kts 359°
2026-05-05 08:02 -38.65952 174.80658 33481 ft 456 kts 359°
2026-05-05 08:02 -38.59607 174.80657 33480 ft 456 kts 359°
2026-05-05 08:03 -38.53258 174.80655 33436 ft 454 kts 359°
2026-05-05 08:03 -38.50109 174.80654 32800 ft 452 kts 359°
2026-05-05 08:03 -38.46955 174.80653 31725 ft 455 kts 358°
2026-05-05 08:04 -38.43772 174.80652 30415 ft 460 kts 358°
2026-05-05 08:04 -38.40562 174.80650 29003 ft 462 kts 359°
2026-05-05 08:04 -38.37366 174.80650 28008 ft 455 kts 359°
2026-05-05 08:04 -38.34242 174.80650 27372 ft 441 kts 359°
2026-05-05 08:05 -38.31252 174.80651 26860 ft 427 kts 359°
2026-05-05 08:05 -38.28271 174.80650 26308 ft 422 kts 359°
2026-05-05 08:05 -38.25388 174.80649 25779 ft 417 kts 359°
2026-05-05 08:05 -38.22460 174.80647 25240 ft 413 kts 359°
2026-05-05 08:06 -38.19644 174.80646 24698 ft 409 kts 359°
2026-05-05 08:06 -38.16811 174.80644 24176 ft 405 kts 359°
2026-05-05 08:06 -38.14007 174.80643 23613 ft 400 kts 359°
2026-05-05 08:06 -38.11251 174.80643 23158 ft 393 kts 359°
2026-05-05 08:07 -38.08552 174.80642 22883 ft 386 kts 359°
2026-05-05 08:07 -38.05855 174.80641 22623 ft 388 kts 359°
2026-05-05 08:07 -38.03151 174.80640 22360 ft 388 kts 359°
2026-05-05 08:07 -38.00465 174.80639 21918 ft 387 kts 359°
2026-05-05 08:08 -37.97778 174.80638 21389 ft 384 kts 359°
2026-05-05 08:08 -37.95114 174.80637 20860 ft 381 kts 359°
2026-05-05 08:08 -37.92478 174.80636 20333 ft 377 kts 359°
2026-05-05 08:08 -37.89874 174.80635 19820 ft 373 kts 359°
2026-05-05 08:09 -37.87289 174.80634 19308 ft 369 kts 359°
2026-05-05 08:09 -37.84730 174.80646 18770 ft 367 kts 360°
2026-05-05 08:09 -37.82187 174.80680 18228 ft 363 kts 360°
2026-05-05 08:09 -37.79677 174.80719 17725 ft 358 kts 360°
2026-05-05 08:10 -37.77197 174.80756 17215 ft 354 kts 360°
2026-05-05 08:10 -37.74742 174.80790 16726 ft 350 kts 360°
2026-05-05 08:10 -37.72320 174.80822 16221 ft 347 kts
2026-05-05 08:10 -37.69912 174.80852 15732 ft 344 kts
2026-05-05 08:11 -37.67524 174.80882 15255 ft 342 kts
2026-05-05 08:11 -37.65137 174.80912 14490 ft 347 kts
2026-05-05 08:11 -37.62689 174.80942 13671 ft 354 kts
2026-05-05 08:11 -37.60253 174.80973 13376 ft 344 kts
2026-05-05 08:12 -37.57899 174.81003 13073 ft 334 kts
2026-05-05 08:12 -37.55594 174.81033 12658 ft 330 kts
2026-05-05 08:12 -37.53311 174.81063 12211 ft 326 kts
2026-05-05 08:12 -37.51048 174.81092 11763 ft 324 kts
2026-05-05 08:13 -37.48803 174.81121 11319 ft 321 kts
2026-05-05 08:13 -37.46604 174.81149 10895 ft 319 kts
2026-05-05 08:13 -37.44367 174.81178 10436 ft 317 kts
2026-05-05 08:13 -37.42163 174.81206 9994 ft 314 kts
2026-05-05 08:14 -37.40041 174.81234 9862 ft 303 kts
2026-05-05 08:14 -37.37974 174.81261 9752 ft 291 kts
2026-05-05 08:14 -37.35979 174.81287 9499 ft 283 kts
2026-05-05 08:14 -37.34029 174.81311 9208 ft 278 kts
2026-05-05 08:15 -37.32104 174.81336 8829 ft 276 kts
2026-05-05 08:15 -37.30194 174.81361 8466 ft 273 kts
2026-05-05 08:15 -37.28304 174.81289 8114 ft 270 kts 348°
2026-05-05 08:15 -37.26641 174.80344 7965 ft 261 kts 322°
2026-05-05 08:16 -37.25493 174.78606 7646 ft 262 kts 301°
2026-05-05 08:16 -37.24609 174.76608 7291 ft 261 kts 300°
2026-05-05 08:16 -37.23736 174.74615 6937 ft 261 kts 300°
2026-05-05 08:16 -37.22862 174.72626 6574 ft 260 kts 300°
2026-05-05 08:17 -37.21988 174.70650 6237 ft 257 kts 301°
2026-05-05 08:17 -37.21122 174.68701 5894 ft 256 kts 301°
2026-05-05 08:17 -37.20257 174.66760 5546 ft 254 kts 301°
2026-05-05 08:17 -37.19393 174.64826 5199 ft 254 kts 301°
2026-05-05 08:18 -37.18533 174.62899 4850 ft 252 kts 301°
2026-05-05 08:18 -37.17676 174.60982 4507 ft 251 kts 302°
2026-05-05 08:18 -37.16834 174.59097 4314 ft 243 kts 302°
2026-05-05 08:18 -37.15881 174.57444 4198 ft 227 kts 322°
2026-05-05 08:19 -37.14532 174.56490 4005 ft 225 kts 343°
2026-05-05 08:19 -37.13042 174.55870 3707 ft 226 kts 344°
2026-05-05 08:19 -37.11562 174.55250 3413 ft 223 kts 344°
2026-05-05 08:19 -37.10094 174.54713 3195 ft 214 kts 356°
2026-05-05 08:20 -37.08647 174.55063 3105 ft 216 kts 32°
2026-05-05 08:20 -37.07604 174.56322 3013 ft 205 kts 56°
2026-05-05 08:20 -37.06959 174.57863 2917 ft 196 kts 65°
2026-05-05 08:20 -37.06498 174.59400 2818 ft 186 kts 69°
2026-05-05 08:21 -37.06088 174.60906 2676 ft 175 kts 68°
2026-05-05 08:21 -37.05704 174.62299 2457 ft 164 kts 69°
2026-05-05 08:21 -37.05347 174.63591 2277 ft 153 kts 68°
2026-05-05 08:21 -37.05012 174.64809 2061 ft 138 kts 69°
2026-05-05 08:22 -37.04718 174.65877 1880 ft 126 kts 69°
2026-05-05 08:22 -37.04425 174.66936 1713 ft 128 kts 69°
2026-05-05 08:22 -37.04143 174.67963 1542 ft 126 kts 69°
2026-05-05 08:22 -37.03851 174.69023 1377 ft 127 kts 69°
2026-05-05 08:23 -37.03564 174.70066 1206 ft 127 kts 70°
2026-05-05 08:23 -37.03278 174.71103 1037 ft 127 kts 69°
2026-05-05 08:23 -37.02986 174.72161 860 ft 128 kts 71°
2026-05-05 08:23 -37.02694 174.73222 685 ft 132 kts 71°
2026-05-05 08:24 -37.02394 174.74315 511 ft 133 kts 71°
2026-05-05 08:24 -37.02095 174.75400 330 ft 132 kts 71°
2026-05-05 08:24 -37.01795 174.76490 161 ft 132 kts 71°
2026-05-05 08:24 -37.01499 174.77566 28 ft 124 kts 71°
2026-05-05 08:25 -37.01303 174.78272 25 ft 27 kts 69°
2026-05-05 08:25 -37.01226 174.78384 25 ft 18 kts 49°
2026-05-05 08:25 -37.01131 174.78498 27 ft 20 kts 38°
2026-05-05 08:25 -37.01027 174.78619 25 ft 21 kts 53°
2026-05-05 08:26 -37.00961 174.78785 26 ft 22 kts 71°
2026-05-05 08:26 -37.00918 174.78969 27 ft 21 kts 75°
2026-05-05 08:26 -37.00872 174.79142 26 ft 15 kts 53°
2026-05-05 08:26 -37.00816 174.79132 26 ft 7 kts 328°
2026-05-05 08:27 -37.00765 174.79062 28 ft 13 kts 313°
2026-05-05 08:27 -37.00734 174.79049 26 ft 0 kts 359°
2026-05-05 08:31 -41.32862 174.81004 32 ft 0 kts 53°